When you browse on this site, cookies collect data to enhance your experience and personalize the content and advertising you see.
Visit our Privacy Policy to learn more. By continuing to use the site, you agree to this use of cookies and data.

Hourly Weather Haradok

Today, 7 July, Tuesday

Time Temperature Precipitation Wind Pressure Humidity
00:00 +18°C° 2 mm 2 mps 741 mmHg 97%
01:00 +18°C° 2 mm 2 mps 741 mmHg 97%
02:00 +19°C° 0 mm 1 mps 741 mmHg 98%
03:00 +19°C° 1.4 mm 1 mps 741 mmHg 98%
04:00 +18°C° 1.4 mm 2 mps 741 mmHg 97%
05:00 +17°C° 1.4 mm 2 mps 741 mmHg 97%
06:00 +17°C° 0.5 mm 3 mps 741 mmHg 95%
07:00 +17°C° 0.5 mm 3 mps 742 mmHg 94%
08:00 +15°C° 0.5 mm 4 mps 742 mmHg 93%
09:00 +14°C° 0 mm 4 mps 742 mmHg 91%
10:00 +14°C° 0 mm 4 mps 742 mmHg 88%
11:00 +13°C° 0 mm 4 mps 742 mmHg 86%
12:00 +13°C° 0 mm 4 mps 742 mmHg 86%
13:00 +14°C° 0 mm 3 mps 743 mmHg 86%
14:00 +14°C° 0 mm 3 mps 743 mmHg 85%
15:00 +13°C° 0.1 mm 3 mps 743 mmHg 86%
16:00 +13°C° 0.1 mm 3 mps 742 mmHg 87%
17:00 +13°C° 0.1 mm 3 mps 742 mmHg 89%
18:00 +13°C° 0 mm 3 mps 742 mmHg 87%
19:00 +14°C° 0 mm 2 mps 742 mmHg 86%
20:00 +13°C° 0 mm 1 mps 742 mmHg 84%
21:00 +13°C° 0.1 mm 2 mps 742 mmHg 87%
22:00 +13°C° 0.1 mm 2 mps 742 mmHg 89%
23:00 +12°C° 0.1 mm 2 mps 742 mmHg 91%

Tomorrow, 8 July, Wednesday

Time Temperature Precipitation Wind Pressure Humidity
00:00 +13°C° 0 mm 2 mps 743 mmHg 92%
01:00 +13°C° 0 mm 2 mps 743 mmHg 94%
02:00 +13°C° 0 mm 2 mps 743 mmHg 95%
03:00 +13°C° 0 mm 2 mps 743 mmHg 95%
04:00 +13°C° 0 mm 2 mps 743 mmHg 95%
05:00 +13°C° 0 mm 2 mps 743 mmHg 95%
06:00 +13°C° 0 mm 3 mps 743 mmHg 91%
07:00 +14°C° 0 mm 3 mps 743 mmHg 87%
08:00 +16°C° 0 mm 3 mps 743 mmHg 84%
09:00 +17°C° 0.1 mm 3 mps 744 mmHg 76%
10:00 +18°C° 0.1 mm 3 mps 744 mmHg 69%
11:00 +19°C° 0.1 mm 4 mps 744 mmHg 62%
12:00 +20°C° 0.1 mm 4 mps 744 mmHg 61%
13:00 +20°C° 0.1 mm 4 mps 744 mmHg 59%
14:00 +20°C° 0.1 mm 4 mps 744 mmHg 58%
15:00 +20°C° 0 mm 4 mps 744 mmHg 58%
16:00 +20°C° 0 mm 4 mps 744 mmHg 59%
17:00 +20°C° 0 mm 4 mps 744 mmHg 59%
18:00 +18°C° 0.1 mm 3 mps 744 mmHg 68%
19:00 +16°C° 0.1 mm 3 mps 744 mmHg 77%
20:00 +15°C° 0.1 mm 2 mps 744 mmHg 85%
21:00 +14°C° 0 mm 2 mps 744 mmHg 88%
22:00 +13°C° 0 mm 2 mps 745 mmHg 90%
23:00 +12°C° 0 mm 2 mps 745 mmHg 92%

Day after tomorrow, 9 July, Thursday

Time Temperature Precipitation Wind Pressure Humidity
00:00 +12°C° 0 mm 2 mps 745 mmHg 94%
01:00 +10°C° 0 mm 2 mps 745 mmHg 95%
02:00 +9°C° 0 mm 2 mps 746 mmHg 96%
03:00 +10°C° 0 mm 2 mps 746 mmHg 96%
04:00 +10°C° 0 mm 2 mps 746 mmHg 96%
05:00 +10°C° 0 mm 2 mps 746 mmHg 95%
06:00 +13°C° 0 mm 2 mps 746 mmHg 87%
07:00 +14°C° 0 mm 2 mps 747 mmHg 78%
08:00 +16°C° 0 mm 2 mps 747 mmHg 70%
09:00 +17°C° 0.1 mm 3 mps 747 mmHg 69%
10:00 +17°C° 0.1 mm 3 mps 747 mmHg 68%
11:00 +18°C° 0.1 mm 3 mps 747 mmHg 67%
12:00 +19°C° 0.4 mm 3 mps 747 mmHg 65%
13:00 +19°C° 0.4 mm 3 mps 747 mmHg 62%
14:00 +20°C° 0.4 mm 4 mps 747 mmHg 60%
15:00 +19°C° 0.2 mm 4 mps 747 mmHg 63%
16:00 +19°C° 0.2 mm 4 mps 747 mmHg 66%
17:00 +19°C° 0.2 mm 4 mps 747 mmHg 69%
18:00 +18°C° 0.2 mm 3 mps 747 mmHg 74%
19:00 +16°C° 0.2 mm 3 mps 748 mmHg 80%
20:00 +15°C° 0.2 mm 2 mps 748 mmHg 85%
21:00 +14°C° 0 mm 2 mps 748 mmHg 88%
22:00 +13°C° 0 mm 2 mps 748 mmHg 91%
23:00 +12°C° 0 mm 2 mps 749 mmHg 94%

10 July, Friday

Time Temperature Precipitation Wind Pressure Humidity
00:00 +12°C° 0 mm 2 mps 749 mmHg 94%
01:00 +10°C° 0 mm 2 mps 749 mmHg 95%
02:00 +10°C° 0 mm 2 mps 749 mmHg 95%
03:00 +10°C° 0 mm 2 mps 749 mmHg 95%
04:00 +10°C° 0 mm 2 mps 750 mmHg 95%
05:00 +10°C° 0 mm 2 mps 750 mmHg 95%
06:00 +13°C° 0 mm 2 mps 750 mmHg 90%
07:00 +15°C° 0 mm 2 mps 750 mmHg 84%
08:00 +17°C° 0 mm 2 mps 750 mmHg 78%
09:00 +18°C° 0 mm 2 mps 750 mmHg 72%
10:00 +19°C° 0 mm 3 mps 750 mmHg 67%
11:00 +20°C° 0 mm 3 mps 750 mmHg 61%
12:00 +21°C° 0 mm 3 mps 750 mmHg 60%
13:00 +21°C° 0 mm 4 mps 750 mmHg 59%
14:00 +22°C° 0 mm 4 mps 750 mmHg 58%
15:00 +22°C° 0 mm 4 mps 750 mmHg 61%
16:00 +21°C° 0 mm 4 mps 749 mmHg 64%
17:00 +21°C° 0 mm 4 mps 749 mmHg 67%
18:00 +20°C° 0 mm 4 mps 749 mmHg 71%
19:00 +19°C° 0 mm 4 mps 749 mmHg 76%
20:00 +18°C° 0 mm 4 mps 748 mmHg 80%
21:00 +18°C° 0 mm 4 mps 748 mmHg 78%
22:00 +17°C° 0 mm 5 mps 748 mmHg 76%
23:00 +17°C° 0 mm 6 mps 748 mmHg 75%

11 July, Saturday

Time Temperature Precipitation Wind Pressure Humidity
00:00 +17°C° 0.1 mm 6 mps 747 mmHg 78%
01:00 +17°C° 0.1 mm 6 mps 747 mmHg 81%
02:00 +16°C° 0.1 mm 6 mps 746 mmHg 84%
03:00 +16°C° 0.1 mm 6 mps 746 mmHg 85%
04:00 +17°C° 0.1 mm 6 mps 746 mmHg 87%
05:00 +17°C° 0.1 mm 6 mps 745 mmHg 89%
06:00 +19°C° 0.1 mm 6 mps 746 mmHg 89%
07:00 +20°C° 0.1 mm 6 mps 746 mmHg 88%
08:00 +21°C° 0.1 mm 6 mps 746 mmHg 87%
09:00 +21°C° 0.1 mm 5 mps 746 mmHg 88%
10:00 +21°C° 0.1 mm 5 mps 746 mmHg 88%
11:00 +21°C° 0.1 mm 4 mps 747 mmHg 88%
12:00 +20°C° 0.2 mm 4 mps 747 mmHg 84%
13:00 +20°C° 0.2 mm 4 mps 747 mmHg 81%
14:00 +20°C° 0.2 mm 3 mps 747 mmHg 77%
15:00 +19°C° 0 mm 3 mps 747 mmHg 72%
16:00 +19°C° 0 mm 3 mps 747 mmHg 68%
17:00 +19°C° 0 mm 3 mps 747 mmHg 63%
18:00 +18°C° 0 mm 3 mps 747 mmHg 69%
19:00 +17°C° 0 mm 2 mps 748 mmHg 75%
20:00 +16°C° 0 mm 2 mps 748 mmHg 81%
21:00 +15°C° 0 mm 2 mps 748 mmHg 80%
22:00 +15°C° 0 mm 2 mps 748 mmHg 80%
23:00 +15°C° 0 mm 2 mps 748 mmHg 79%

12 July, Sunday

Time Temperature Precipitation Wind Pressure Humidity
00:00 +15°C° 0 mm 2 mps 749 mmHg 79%
01:00 +14°C° 0 mm 2 mps 749 mmHg 79%
02:00 +14°C° 0 mm 2 mps 749 mmHg 78%
03:00 +13°C° 0.2 mm 2 mps 749 mmHg 82%
04:00 +13°C° 0.2 mm 2 mps 749 mmHg 86%
05:00 +12°C° 0.2 mm 1 mps 749 mmHg 90%
06:00 +12°C° 1.2 mm 2 mps 749 mmHg 91%
07:00 +13°C° 1.2 mm 2 mps 749 mmHg 92%
08:00 +13°C° 1.2 mm 2 mps 749 mmHg 92%
09:00 +13°C° 0.8 mm 2 mps 749 mmHg 91%
10:00 +14°C° 0.8 mm 1 mps 749 mmHg 90%
11:00 +14°C° 0.8 mm 1 mps 750 mmHg 89%
12:00 +15°C° 0.3 mm 1 mps 750 mmHg 85%
13:00 +16°C° 0.3 mm 1 mps 750 mmHg 80%
14:00 +16°C° 0.3 mm 1 mps 749 mmHg 76%
15:00 +16°C° 0.2 mm 1 mps 749 mmHg 78%
16:00 +16°C° 0.2 mm 1 mps 749 mmHg 79%
17:00 +16°C° 0.2 mm 1 mps 749 mmHg 81%
18:00 +15°C° 0.1 mm 2 mps 749 mmHg 85%
19:00 +14°C° 0.1 mm 2 mps 749 mmHg 89%
20:00 +13°C° 0.1 mm 2 mps 749 mmHg 94%
21:00 +13°C° 0 mm 1 mps 748 mmHg 94%
22:00 +12°C° 0 mm 1 mps 748 mmHg 94%
23:00 +12°C° 0 mm 1 mps 748 mmHg 94%
Show more